KLM22X EGHI-EHAM

Flight info

Callsign KLM22X
Flight time 0h 48m
Altitude 31000
Route GWC DCT OCK UM185 KOBBI M197 REDFA
Aircraft A21N/M-SDE2E3FGHIRWXY/LB1

Departure

Time 2026-05-05 19:51
Airport Southampton Airport (EGHI)

Arrival

Time 2026-05-05 20:39
Airport Amsterdam Airport Schiphol (EHAM)
Time Latitude Longitude Altitude Speed Heading
2026-05-05 19:25 50.95040 -1.36004 51 ft 0 kts 289°
2026-05-05 19:37 50.95037 -1.35994 52 ft 2 kts 283°
2026-05-05 19:38 50.95035 -1.35976 49 ft 1 kts 278°
2026-05-05 19:38 50.95034 -1.35974 48 ft 0 kts 277°
2026-05-05 19:39 50.95034 -1.35968 48 ft 2 kts 274°
2026-05-05 19:39 50.95034 -1.35949 50 ft 1 kts 262°
2026-05-05 19:39 50.95037 -1.35932 53 ft 1 kts 217°
2026-05-05 19:39 50.95046 -1.35924 50 ft 1 kts 201°
2026-05-05 19:40 50.95048 -1.35922 50 ft 0 kts 201°
2026-05-05 19:40 50.95049 -1.35922 50 ft 0 kts 201°
2026-05-05 19:41 50.95048 -1.35922 49 ft 0 kts 201°
2026-05-05 19:42 50.95048 -1.35923 49 ft 0 kts 201°
2026-05-05 19:42 50.95047 -1.35923 49 ft 0 kts 201°
2026-05-05 19:44 50.95043 -1.35926 52 ft 1 kts 201°
2026-05-05 19:45 50.95008 -1.35947 50 ft 12 kts 200°
2026-05-05 19:45 50.94891 -1.36011 49 ft 22 kts 199°
2026-05-05 19:45 50.94735 -1.36099 45 ft 25 kts 199°
2026-05-05 19:45 50.94612 -1.36123 43 ft 9 kts 155°
2026-05-05 19:46 50.94603 -1.36111 42 ft 0 kts 133°
2026-05-05 19:47 50.94602 -1.36110 42 ft 0 kts 133°
2026-05-05 19:47 50.94582 -1.36058 42 ft 12 kts 111°
2026-05-05 19:48 50.94546 -1.35962 42 ft 3 kts 171°
2026-05-05 19:48 50.94493 -1.35978 41 ft 12 kts 198°
2026-05-05 19:48 50.94377 -1.36033 39 ft 18 kts 186°
2026-05-05 19:48 50.94321 -1.36026 40 ft 2 kts 182°
2026-05-05 19:49 50.94314 -1.36027 40 ft 0 kts 190°
2026-05-05 19:49 50.94309 -1.36031 41 ft 2 kts 206°
2026-05-05 19:49 50.94311 -1.36074 40 ft 4 kts 324°
2026-05-05 19:49 50.94328 -1.36070 40 ft 1 kts 21°
2026-05-05 19:50 50.94330 -1.36069 40 ft 0 kts 21°
2026-05-05 19:50 50.94364 -1.36048 39 ft 29 kts 20°
2026-05-05 19:51 50.94796 -1.35810 45 ft 104 kts 19°
2026-05-05 19:51 50.95702 -1.35317 206 ft 156 kts 18°
2026-05-05 19:51 50.96729 -1.34751 1000 ft 158 kts 19°
2026-05-05 19:51 50.97771 -1.34162 1829 ft 159 kts 20°
2026-05-05 19:52 50.98875 -1.33536 2264 ft 178 kts 20°
2026-05-05 19:52 51.00054 -1.32670 2493 ft 198 kts 35°
2026-05-05 19:52 51.00940 -1.30855 2592 ft 225 kts 72°
2026-05-05 19:52 51.00903 -1.28265 2838 ft 248 kts 105°
2026-05-05 19:53 51.00218 -1.25686 3336 ft 257 kts 113°
2026-05-05 19:53 50.99434 -1.23149 3903 ft 260 kts 114°
2026-05-05 19:53 50.98637 -1.20553 4516 ft 262 kts 113°
2026-05-05 19:53 50.97849 -1.17927 5324 ft 264 kts 113°
2026-05-05 19:54 50.97065 -1.15272 6097 ft 267 kts 113°
2026-05-05 19:54 50.96273 -1.12563 6818 ft 273 kts 113°
2026-05-05 19:54 50.95478 -1.09831 7477 ft 277 kts 113°
2026-05-05 19:54 50.94784 -1.06962 7861 ft 279 kts 98°
2026-05-05 19:55 50.94829 -1.03930 7952 ft 275 kts 71°
2026-05-05 19:55 50.95765 -1.01304 8333 ft 277 kts 43°
2026-05-05 19:55 50.97350 -0.99600 9167 ft 275 kts 24°
2026-05-05 19:55 50.99101 -0.98376 9994 ft 277 kts 21°
2026-05-05 19:56 51.00910 -0.97196 10456 ft 292 kts 21°
2026-05-05 19:56 51.02861 -0.95945 10743 ft 313 kts 21°
2026-05-05 19:56 51.04950 -0.94619 11029 ft 332 kts 20°
2026-05-05 19:56 51.07160 -0.93233 11307 ft 350 kts 21°
2026-05-05 19:57 51.09445 -0.91819 11654 ft 363 kts 20°
2026-05-05 19:57 51.11048 -0.90830 12025 ft 368 kts 20°
2026-05-05 19:57 51.14248 -0.88866 12875 ft 374 kts 20°
2026-05-05 19:57 51.16704 -0.87369 13540 ft 378 kts 20°
2026-05-05 19:58 51.19171 -0.85871 14115 ft 381 kts 20°
2026-05-05 19:58 51.21668 -0.84357 14690 ft 385 kts 20°
2026-05-05 19:58 51.24159 -0.82846 15282 ft 388 kts 20°
2026-05-05 19:58 51.26690 -0.81310 15838 ft 391 kts 20°
2026-05-05 19:59 51.29249 -0.79756 16442 ft 394 kts 20°
2026-05-05 19:59 51.31826 -0.78190 17007 ft 397 kts 20°
2026-05-05 19:59 51.34406 -0.76619 17561 ft 401 kts 20°
2026-05-05 19:59 51.37029 -0.75011 18084 ft 405 kts 20°
2026-05-05 20:00 51.39701 -0.73359 18598 ft 408 kts 22°
2026-05-05 20:00 51.42224 -0.71306 19040 ft 412 kts 32°
2026-05-05 20:00 51.44484 -0.68419 19477 ft 417 kts 43°
2026-05-05 20:00 51.46472 -0.65010 19916 ft 422 kts 49°
2026-05-05 20:01 51.48307 -0.61291 20351 ft 425 kts 52°
2026-05-05 20:01 51.50044 -0.57441 20782 ft 429 kts 54°
2026-05-05 20:01 51.51751 -0.53527 21222 ft 432 kts 54°
2026-05-05 20:01 51.53485 -0.49536 21630 ft 435 kts 54°
2026-05-05 20:02 51.55236 -0.45544 22062 ft 439 kts 53°
2026-05-05 20:02 51.57011 -0.41546 22488 ft 442 kts 53°
2026-05-05 20:02 51.58807 -0.37538 22866 ft 447 kts 53°
2026-05-05 20:02 51.60644 -0.33461 23249 ft 451 kts 53°
2026-05-05 20:03 51.62504 -0.29341 23736 ft 454 kts 52°
2026-05-05 20:03 51.64373 -0.25197 24112 ft 457 kts 53°
2026-05-05 20:03 51.66247 -0.21021 24476 ft 460 kts 54°
2026-05-05 20:03 51.67894 -0.16646 24827 ft 464 kts 62°
2026-05-05 20:04 51.69137 -0.11879 25173 ft 466 kts 71°
2026-05-05 20:04 51.70115 -0.06840 25516 ft 469 kts 74°
2026-05-05 20:04 51.70980 -0.01740 25834 ft 471 kts 76°
2026-05-05 20:04 51.71772 0.03330 26197 ft 471 kts 77°
2026-05-05 20:05 51.72546 0.08465 26634 ft 470 kts 77°
2026-05-05 20:05 51.73311 0.13590 26936 ft 470 kts 77°
2026-05-05 20:05 51.74081 0.18726 26986 ft 469 kts 77°
2026-05-05 20:05 51.74856 0.23859 26988 ft 470 kts 77°
2026-05-05 20:06 51.75635 0.28984 26988 ft 470 kts 77°
2026-05-05 20:06 51.76413 0.34090 26987 ft 470 kts 77°
2026-05-05 20:06 51.77196 0.39226 26986 ft 470 kts 77°
2026-05-05 20:06 51.77977 0.44355 26983 ft 470 kts 77°
2026-05-05 20:07 51.78755 0.49487 26981 ft 470 kts 77°
2026-05-05 20:07 51.79523 0.54561 26976 ft 469 kts 77°
2026-05-05 20:07 51.80295 0.59689 26974 ft 469 kts 77°
2026-05-05 20:07 51.81066 0.64816 26965 ft 469 kts 77°
2026-05-05 20:08 51.81849 0.69956 26963 ft 471 kts 77°
2026-05-05 20:08 51.82644 0.75131 26964 ft 473 kts 77°
2026-05-05 20:08 51.83442 0.80291 26963 ft 473 kts 77°
2026-05-05 20:08 51.84286 0.85369 26964 ft 473 kts 75°
2026-05-05 20:09 51.85208 0.90526 26964 ft 473 kts 74°
2026-05-05 20:09 51.86153 0.95640 26964 ft 473 kts 74°
2026-05-05 20:09 51.87092 1.00691 26959 ft 473 kts 74°
2026-05-05 20:09 51.88035 1.05785 26960 ft 470 kts 74°
2026-05-05 20:10 51.88965 1.10857 26961 ft 469 kts 74°
2026-05-05 20:10 51.89888 1.15935 26963 ft 469 kts 75°
2026-05-05 20:10 51.90495 1.19301 26960 ft 469 kts 75°
2026-05-05 20:10 51.91705 1.26044 26960 ft 469 kts 75°
2026-05-05 20:11 51.92305 1.29406 26960 ft 469 kts 75°
2026-05-05 20:11 51.93215 1.34516 26963 ft 469 kts 75°
2026-05-05 20:11 51.94118 1.39599 26960 ft 469 kts 75°
2026-05-05 20:11 51.95017 1.44677 26960 ft 469 kts 75°
2026-05-05 20:12 51.95917 1.49768 26959 ft 468 kts 75°
2026-05-05 20:12 51.96799 1.54775 26958 ft 468 kts 75°
2026-05-05 20:12 51.97691 1.59853 26954 ft 468 kts 75°
2026-05-05 20:12 51.98583 1.64939 26955 ft 468 kts 76°
2026-05-05 20:13 51.99443 1.70029 26960 ft 468 kts 77°
2026-05-05 20:13 52.00250 1.75151 26959 ft 468 kts 77°
2026-05-05 20:13 52.01041 1.80258 26957 ft 468 kts 77°
2026-05-05 20:13 52.01834 1.85390 26958 ft 468 kts 77°
2026-05-05 20:14 52.02625 1.90517 26957 ft 468 kts 77°
2026-05-05 20:14 52.03415 1.95648 26802 ft 469 kts 77°
2026-05-05 20:14 52.04207 2.00804 26536 ft 471 kts 77°
2026-05-05 20:14 52.05001 2.05986 26280 ft 473 kts 77°
2026-05-05 20:15 52.05794 2.11178 26021 ft 474 kts 77°
2026-05-05 20:15 52.06586 2.16378 25760 ft 474 kts 77°
2026-05-05 20:15 52.07378 2.21594 25520 ft 475 kts 77°
2026-05-05 20:15 52.08169 2.26820 25265 ft 476 kts 77°
2026-05-05 20:16 52.08956 2.32038 24781 ft 473 kts 77°
2026-05-05 20:16 52.09722 2.37134 24115 ft 468 kts 77°
2026-05-05 20:16 52.10487 2.42239 23438 ft 462 kts 76°
2026-05-05 20:16 52.11316 2.47261 22695 ft 456 kts 71°
2026-05-05 20:17 52.12636 2.51943 22395 ft 456 kts 62°
2026-05-05 20:17 52.14201 2.56423 21758 ft 454 kts 60°
2026-05-05 20:17 52.15805 2.60836 20978 ft 450 kts 59°
2026-05-05 20:17 52.17389 2.65177 20382 ft 441 kts 59°
2026-05-05 20:18 52.18941 2.69447 20012 ft 437 kts 59°
2026-05-05 20:18 52.20486 2.73717 19759 ft 436 kts 59°
2026-05-05 20:18 52.22022 2.77975 19513 ft 435 kts 59°
2026-05-05 20:18 52.23548 2.82217 19271 ft 432 kts 59°
2026-05-05 20:19 52.25065 2.86442 19038 ft 430 kts 59°
2026-05-05 20:19 52.26574 2.90652 18814 ft 430 kts 60°
2026-05-05 20:19 52.28083 2.94871 18453 ft 429 kts 60°
2026-05-05 20:19 52.29584 2.99075 18019 ft 426 kts 59°
2026-05-05 20:20 52.31070 3.03247 17622 ft 424 kts 59°
2026-05-05 20:20 52.32546 3.07395 17251 ft 421 kts 59°
2026-05-05 20:20 52.34015 3.11530 16879 ft 419 kts 59°
2026-05-05 20:20 52.35477 3.15653 16501 ft 417 kts 59°
2026-05-05 20:21 52.36930 3.19756 16125 ft 416 kts 59°
2026-05-05 20:21 52.38373 3.23840 15750 ft 414 kts 59°
2026-05-05 20:21 52.39811 3.27913 15375 ft 412 kts 59°
2026-05-05 20:21 52.41241 3.31972 15008 ft 410 kts 59°
2026-05-05 20:22 52.42665 3.36020 14629 ft 409 kts 59°
2026-05-05 20:22 52.44063 3.40068 14266 ft 407 kts 62°
2026-05-05 20:22 52.45100 3.44373 13922 ft 407 kts 73°
2026-05-05 20:22 52.45811 3.48852 13536 ft 405 kts 76°
2026-05-05 20:23 52.46449 3.53332 13157 ft 402 kts 76°
2026-05-05 20:23 52.47074 3.57782 12806 ft 399 kts 76°
2026-05-05 20:23 52.47692 3.62174 12520 ft 388 kts 76°
2026-05-05 20:23 52.48288 3.66392 12272 ft 372 kts 76°
2026-05-05 20:24 52.48862 3.70462 11944 ft 360 kts 76°
2026-05-05 20:24 52.49412 3.74355 11619 ft 349 kts 76°
2026-05-05 20:24 52.49950 3.78169 11310 ft 338 kts 76°
2026-05-05 20:24 52.50472 3.81874 10992 ft 328 kts 76°
2026-05-05 20:25 52.50978 3.85474 10696 ft 319 kts 76°
2026-05-05 20:25 52.51469 3.88973 10404 ft 310 kts 76°
2026-05-05 20:25 52.51943 3.92388 10117 ft 302 kts 78°
2026-05-05 20:25 52.52107 3.95782 9794 ft 297 kts 96°
2026-05-05 20:26 52.51477 3.98946 9522 ft 292 kts 120°
2026-05-05 20:26 52.50345 4.01713 9300 ft 292 kts 126°
2026-05-05 20:26 52.49089 4.04331 9083 ft 292 kts 130°
2026-05-05 20:26 52.47731 4.06804 8875 ft 292 kts 132°
2026-05-05 20:27 52.46352 4.09241 8666 ft 291 kts 132°
2026-05-05 20:27 52.44967 4.11649 8463 ft 291 kts 131°
2026-05-05 20:27 52.43564 4.14039 8251 ft 290 kts 132°
2026-05-05 20:27 52.42166 4.16407 8050 ft 288 kts 133°
2026-05-05 20:28 52.40777 4.18768 7844 ft 286 kts 131°
2026-05-05 20:28 52.39386 4.21099 7636 ft 286 kts 133°
2026-05-05 20:28 52.38016 4.23405 7410 ft 285 kts 132°
2026-05-05 20:28 52.36637 4.25727 7157 ft 284 kts 132°
2026-05-05 20:29 52.35265 4.28026 6905 ft 282 kts 133°
2026-05-05 20:29 52.33623 4.29780 6653 ft 285 kts 159°
2026-05-05 20:29 52.31688 4.30508 6431 ft 287 kts 170°
2026-05-05 20:29 52.29703 4.30924 6272 ft 286 kts 172°
2026-05-05 20:30 52.27736 4.31301 6266 ft 285 kts 172°
2026-05-05 20:30 52.25763 4.31674 6260 ft 285 kts 172°
2026-05-05 20:30 52.23795 4.32047 6262 ft 284 kts 172°
2026-05-05 20:30 52.21821 4.32406 6261 ft 287 kts 172°
2026-05-05 20:31 52.19869 4.33061 6070 ft 285 kts 158°
2026-05-05 20:31 52.18193 4.34677 5687 ft 276 kts 134°
2026-05-05 20:31 52.17131 4.37180 5229 ft 266 kts 105°
2026-05-05 20:31 52.16783 4.40092 4787 ft 261 kts 92°
2026-05-05 20:32 52.16658 4.42993 4379 ft 257 kts 90°
2026-05-05 20:32 52.16568 4.45915 3980 ft 254 kts 90°
2026-05-05 20:32 52.16482 4.48731 3621 ft 250 kts 90°
2026-05-05 20:32 52.16394 4.51551 3500 ft 250 kts 90°
2026-05-05 20:33 52.16302 4.54382 3486 ft 252 kts 90°
2026-05-05 20:33 52.16206 4.57230 3483 ft 251 kts 90°
2026-05-05 20:33 52.16108 4.60082 3404 ft 252 kts 90°
2026-05-05 20:33 52.16009 4.62917 3077 ft 250 kts 91°
2026-05-05 20:34 52.15910 4.65721 2988 ft 245 kts 90°
2026-05-05 20:34 52.15812 4.68374 3011 ft 223 kts 90°
2026-05-05 20:34 52.15722 4.70767 3038 ft 199 kts 90°
2026-05-05 20:34 52.15726 4.72870 3021 ft 173 kts 81°
2026-05-05 20:35 52.15944 4.74656 3040 ft 148 kts 69°
2026-05-05 20:35 52.16520 4.75881 2782 ft 138 kts 28°
2026-05-05 20:35 52.17420 4.76440 2425 ft 138 kts 18°
2026-05-05 20:35 52.18345 4.76695 2312 ft 134 kts 10°
2026-05-05 20:36 52.19270 4.76820 2310 ft 134 kts
2026-05-05 20:36 52.20185 4.76887 2171 ft 128 kts
2026-05-05 20:36 52.21068 4.76922 1811 ft 126 kts
2026-05-05 20:36 52.21912 4.77011 1536 ft 122 kts
2026-05-05 20:37 52.22779 4.77141 1317 ft 128 kts
2026-05-05 20:37 52.23682 4.77255 1122 ft 131 kts
2026-05-05 20:37 52.24596 4.77320 974 ft 131 kts
2026-05-05 20:37 52.25513 4.77401 755 ft 131 kts
2026-05-05 20:38 52.26425 4.77497 557 ft 130 kts
2026-05-05 20:38 52.27334 4.77568 411 ft 132 kts
2026-05-05 20:38 52.28242 4.77653 211 ft 129 kts
2026-05-05 20:38 52.29135 4.77738 49 ft 127 kts
2026-05-05 20:39 52.29959 4.77816 16 ft 108 kts
2026-05-05 20:39 52.30572 4.77873 22 ft 52 kts
2026-05-05 20:39 52.30817 4.77884 15 ft 34 kts 352°
2026-05-05 20:39 52.31025 4.77747 17 ft 31 kts 333°
2026-05-05 20:40 52.31143 4.77628 16 ft 11 kts 297°
2026-05-05 20:40 52.31172 4.77519 15 ft 6 kts 319°
2026-05-05 20:40 52.31203 4.77506 15 ft 4 kts 356°
2026-05-05 20:40 52.31241 4.77504 14 ft 6 kts 354°
2026-05-05 20:41 52.31294 4.77471 12 ft 7 kts 327°
2026-05-05 20:41 52.31295 4.77457 11 ft 3 kts 262°
2026-05-05 20:41 52.31292 4.77401 10 ft 8 kts 273°
2026-05-05 20:41 52.31290 4.77285 7 ft 9 kts 244°
2026-05-05 20:42 52.31271 4.77275 7 ft 3 kts 163°
2026-05-05 20:42 52.31242 4.77273 7 ft 6 kts 184°
2026-05-05 20:42 52.31206 4.77270 7 ft 0 kts 182°